Weather History for Skagway, AK

Change the Weather History Date:

Wednesday, May 15, 2013

  Actual Average Record
Temperature  
Mean Temperature 48 °F -  
Max Temperature 52 °F 55 °F 77 °F (1993)
Min Temperature 44 °F 39 °F 31 °F (1966)
Degree Days  
Heating Degree Days 18    
Moisture  
Dew Point 36 °F    
Average Humidity 65    
Maximum Humidity 82    
Minimum Humidity 50    
Precipitation  
Precipitation 0.00 in - - ()
Sea Level Pressure  
Sea Level Pressure 29.85 in    
Wind  
Wind Speed 21 mph (SSW)    
Max Wind Speed 29 mph    
Max Gust Speed 37 mph    
Visibility 10 miles    
Events Rain    
Averages and records for this station are not official NWS values.
T = Trace of Precipitation, MM = Missing Value Source: NWS Daily Summary

Daily Weather History Graph

Daily Weather History Graph

Search for Another Location

Airport:

Trip Planner

Search our weather history database for the weather conditions in past years. The results will help you decide how hot, cold, wet, or windy it might be!

Date:

Astronomy

May. 15, 2013 Rise Set
Actual Time 4:26 AM AKDT 9:30 PM AKDT
Civil Twilight 3:25 AM AKDT 10:32 PM AKDT
Nautical Twilight 1:30 AM AKDT 12:25 AM AKDT
Astronomical Twilight Sun does not rise Sun does not rise
Moon 9:26 AM AKDT (5/15) 1:05 AM AKDT (5/15)
Length of Visible Light 19h 07m
Length of Day
17h 04m
Waxing Crescent, 28% of the Moon is Illuminated
May 15
Waxing Crescent
May 17
First Quarter
May 24
Full
May 31
Last Quarter
Jun 8
New

Hourly Weather History & Observations

Time (AKDT) Temp. Windchill Dew Point Humidity Pressure Visibility Wind Dir Wind Speed Gust Speed Precip Events Conditions
12:53 AM 46.9 °F - 39.9 °F 77% 29.75 in 10.0 mi SSW 23.0 mph 35.7 mph N/A   Overcast
1:53 AM 46.9 °F - 39.0 °F 74% 29.77 in 10.0 mi SSW 20.7 mph 34.5 mph N/A   Overcast
2:53 AM 46.9 °F - 39.0 °F 74% 29.76 in 10.0 mi SSW 25.3 mph 31.1 mph N/A   Overcast
3:53 AM 46.0 °F 36.9 °F 39.0 °F 76% 29.77 in 10.0 mi SSW 28.8 mph 35.7 mph 0.00 in   Overcast
4:53 AM 45.0 °F 37.1 °F 39.9 °F 82% 29.78 in 10.0 mi SSW 19.6 mph 36.8 mph 0.00 in Rain Light Rain
5:53 AM 45.0 °F 37.1 °F 39.0 °F 80% 29.79 in 10.0 mi SSW 19.6 mph 34.5 mph 0.00 in   Overcast
6:07 AM 44.6 °F 35.5 °F 39.2 °F 81% 29.78 in 10.0 mi SSW 25.3 mph 32.2 mph N/A   Mostly Cloudy
6:22 AM 44.6 °F 36.4 °F 39.2 °F 81% 29.80 in 10.0 mi SSW 20.7 mph 29.9 mph N/A   Mostly Cloudy
6:53 AM 46.0 °F 38.5 °F 39.0 °F 76% 29.80 in 10.0 mi SSW 19.6 mph 27.6 mph N/A   Scattered Clouds
7:53 AM 46.0 °F 37.0 °F 39.0 °F 76% 29.81 in 10.0 mi SSW 27.6 mph 33.4 mph N/A   Mostly Cloudy
8:53 AM 48.0 °F - 39.0 °F 71% 29.82 in 10.0 mi SSW 15.0 mph 29.9 mph N/A   Clear
9:53 AM 50.0 °F - 39.0 °F 66% 29.83 in 10.0 mi SSW 17.3 mph 27.6 mph N/A   Scattered Clouds
10:53 AM 51.1 °F - 37.0 °F 59% 29.83 in 10.0 mi SSW 19.6 mph 25.3 mph N/A   Clear
11:53 AM 51.1 °F - 36.0 °F 56% 29.85 in 10.0 mi SSW 20.7 mph 28.8 mph N/A   Clear
12:53 PM 50.0 °F - 37.9 °F 63% 29.87 in 10.0 mi SSW 17.3 mph - N/A   Clear
1:53 PM 50.0 °F - 37.0 °F 61% 29.88 in 10.0 mi SSW 15.0 mph 24.2 mph N/A   Clear
2:53 PM 51.1 °F - 36.0 °F 56% 29.90 in 10.0 mi SSW 24.2 mph - N/A   Clear
3:53 PM 51.1 °F - 35.1 °F 54% 29.90 in 10.0 mi SSW 18.4 mph - N/A   Partly Cloudy
4:53 PM 50.0 °F - 33.1 °F 52% 29.90 in 10.0 mi SSW 19.6 mph - N/A   Partly Cloudy
5:53 PM 50.0 °F - 33.1 °F 52% 29.91 in 10.0 mi SW 20.7 mph - N/A   Clear
6:53 PM 48.9 °F - 33.1 °F 54% 29.92 in 10.0 mi SW 24.2 mph - N/A   Clear
7:53 PM 48.9 °F - 32.0 °F 52% 29.93 in 10.0 mi SSW 21.9 mph 26.5 mph N/A   Clear
8:53 PM 48.9 °F - 32.0 °F 52% 29.94 in 10.0 mi SSW 15.0 mph - N/A   Scattered Clouds
9:53 PM 48.0 °F - 30.9 °F 52% 29.95 in 10.0 mi SSW 11.5 mph 17.3 mph N/A   Partly Cloudy
10:53 PM 48.0 °F - 30.0 °F 50% 29.96 in 10.0 mi SSW 5.8 mph - N/A   Clear
11:53 PM 48.0 °F - 30.9 °F 52% 29.96 in 10.0 mi South 5.8 mph - N/A   Clear